Regional Weather Roundup
Issued by NWS

Home | Current Version | Previous Version | Text Only | Print | Product List | Glossary Off
Versions: 1 2 3 4 5 6 7 8 9 10 11 12 13 14 15 16 17 18 19 20 21 22 23 24 25 26 27 28 29 30 31 32 33 34 35 36 37 38 39 40 41 42 43 44 45 46 47 48 49 50

774
ASUS45 KCYS 281010
RWRWY

WYOMING REGIONAL WEATHER ROUNDUP
NATIONAL WEATHER SERVICE CHEYENNE WY
400 AM MDT FRI APR 28 2017

NOTE:  "FAIR" INDICATES FEW OR NO CLOUDS BELOW 12,000 FEET
WITH NO SIGNIFICANT WEATHER AND/OR OBSTRUCTIONS TO VISIBILITY.

WYZ001-281100-
YELLOWSTONE NATIONAL PARK

CITY           SKY/WX    TMP DP  RH WIND       PRES   REMARKS
LK YELLOWSTONE   N/A     23  21  92 NW6       29.77S WCI  16
W YELLOWSTONE  NOT AVBL

$$
WYZ002>013-054>058-071-098>099-281100-
NORTHERN WYOMING

CITY           SKY/WX    TMP DP  RH WIND       PRES   REMARKS
JACKSON        CLOUDY    28  28 100 S3        29.76S
CODY           FLURRIES  34  31  88 N18G24    29.76S WCI  23
GREYBULL       CLOUDY    40  32  73 N22       29.68S WCI  30
WORLAND        CLOUDY    38  34  85 N12       29.69S WCI  30
SHERIDAN       LGT SNOW  33  31  92 CALM      29.80R VSB 3/4
BUFFALO        SNOW      33  30  88 N20       29.76R VSB 1/2 WCI  21
GILLETTE       SNOW      33  33 100 NE10      29.72R WCI  25
HULETT         CLOUDY    34  32  93 NE8       29.75S WCI  27
NEWCASTLE      DRIZZLE   34  32  93 CALM      29.69S

$$
WYZ014>020-022>026-101>103-281100-
CENTRAL WYOMING

CITY           SKY/WX    TMP DP  RH WIND       PRES   REMARKS
BIG PINEY      CLOUDY    29  20  69 NW5       29.72S WCI  24
PINEDALE       CLOUDY    28  23  80 NW13      29.71F WCI  18
DUBOIS         CLOUDY    30  21  69 W17       29.68R WCI  18
LANDER         LGT SNOW  32  31  96 W7        29.68S FOG     WCI  26
RIVERTON       LGT SNOW  32  32 100 NW5       29.69S FOG     WCI  27
CASPER         FLURRIES  31  31 100 N12       29.66S WCI  22
DOUGLAS        CLOUDY    32  30  92 NE14      29.64S WCI  22

$$
WYZ021-027>030-104>119-281100-
SOUTHERN WYOMING

CITY           SKY/WX    TMP DP  RH WIND       PRES   REMARKS
EVANSTON       FAIR      21  17  84 W13       29.79F WCI   9
FORT BRIDGER   FAIR      24  23  97 W14       29.80F WCI  11
ROCK SPRINGS   CLOUDY    29  20  69 W18       29.73S WCI  16
DIXON            N/A     31  23  72 SW8       29.76S WCI  24
RAWLINS        LGT SNOW  28  25  88 W21G31    29.66R VSB 3/4 WCI  15
SARATOGA       CLOUDY    30  23  74 W16       29.69S WCI  19
LARAMIE        FAIR      25  18  74 W8        29.61S WCI  16
CHEYENNE       FAIR      30  24  78 CALM      29.60S
TORRINGTON     CLOUDY    40  39  97 E8        29.59S WCI  34
PINE BLUFFS    FAIR      32  30  93 W6        29.62R WCI  26

$$




USA.gov is the U.S. government's official web portal to all federal, state and local government web resources and services.